Eelde Airport

Airport
ICAO code: 
EHGG
IATA Code: 
GRQ
Summary
ICAO Region: 
EUR
Territory: 
Location: 
Eelde, Drenthe
Serving: 
Groningen
Elevation: 
17 ft
Coordinates: 
Aerial View: 
53° 7' 10.992" N, 6° 34' 45.998" E
Metar
Observation
EHGG 270025Z AUTO 24017KT 9999 SCT013 BKN015 OVC019 06/04 Q1022
Station
Groningen Airport Eelde
Date/Time
2022-01-27 00:25:00
Wind direction
240°
Wind speed
17 kts
Lowest cloud amount
scattered clouds
Temperature
6°C
Dew point
4°C
Humidity
86%
QNH
1022 hPa
Weather condition
n/a

Groningen Airport Eelde is a civilian airport near Eelde, a town in the province of Drenthe in the Netherlands. It is located 4.8 nm south of the city of Groningen.

Climatology

Temperate Marine climate/Oceanic climate (Köppen climate classification Cfb). Moderately cool summer and comparatively warm winter with a temperature range of only 14°C. Prevailing south-westerly winds from the Atlantic Ocean.

Runways

Designator Length Width Surface Rops
1/19 1500 45 ASP No/No
5/23 1800 45 ASP No/No
Airport map: 
Aerial View: 

Accidents and Serious Incidents at or in the vicinity of EHGG

SKYbrary Partners:

Safety knowledge contributed by: